Time,TemperatureF,DewpointF,PressureIn,WindDirection,WindDirectionDegrees,WindSpeedMPH,WindSpeedGustMPH,Humidity,HourlyPrecipIn,Conditions,Clouds,dailyrainin,SolarRadiationWatts/m^2,SoftwareType,DateUTC
2014-10-01 00:00:00,54.1,51.2,30.03,NE,53,0.0,0.0,90,0.00,,FEW070,0.00,0.00,VWS V15.00,2014-10-01 04:00:00,
2014-10-01 00:05:00,54.0,51.1,30.03,ENE,71,1.5,0.0,90,0.00,,FEW070,0.00,0.00,VWS V15.00,2014-10-01 04:05:00,
2014-10-01 00:10:00,54.0,50.8,30.03,ENE,58,0.0,0.0,89,0.00,,FEW070,0.00,0.00,VWS V15.00,2014-10-01 04:10:00,
2014-10-01 00:15:00,53.8,50.6,30.03,NE,51,1.5,0.0,89,0.00,,FEW070,0.00,0.00,VWS V15.00,2014-10-01 04:15:00,
2014-10-01 00:20:00,53.8,50.6,30.03,ENE,61,0.0,0.0,89,0.00,,FEW070,0.00,0.00,VWS V15.00,2014-10-01 04:20:00,
2014-10-01 00:26:00,53.6,50.7,30.03,NNE,32,0.0,0.0,90,0.00,,FEW070,0.00,0.00,VWS V15.00,2014-10-01 04:26:00,
2014-10-01 00:30:00,53.5,50.7,30.03,NE,40,0.0,0.0,90,0.00,,FEW070,0.00,0.00,VWS V15.00,2014-10-01 04:30:00,
2014-10-01 00:31:00,53.5,50.6,30.03,NE,40,0.0,0.0,90,0.00,,FEW070,0.00,0.00,VWS V15.00,2014-10-01 04:31:00,
2014-10-01 00:36:00,53.2,50.3,30.03,NE,47,1.5,0.0,90,0.00,,FEW070,0.00,0.00,VWS V15.00,2014-10-01 04:36:00,
2014-10-01 00:41:00,53.1,50.2,30.03,NE,55,0.0,0.0,90,0.00,,FEW070,0.00,0.00,VWS V15.00,2014-10-01 04:41:00,
2014-10-01 00:46:00,53.0,50.5,30.04,ENE,68,0.0,0.0,91,0.00,,FEW070,0.00,0.00,VWS V15.00,2014-10-01 04:46:00,
2014-10-01 00:51:00,53.0,50.5,30.03,ENE,69,0.0,0.0,91,0.00,,FEW070,0.00,0.00,VWS V15.00,2014-10-01 04:51:00,
2014-10-01 00:53:00,53.0,50.5,30.04,ENE,69,0.0,0.0,91,0.00,,FEW070,0.00,0.00,VWS V15.00,2014-10-01 04:53:00,
2014-10-01 00:58:00,53.2,50.7,30.04,NE,54,0.0,0.0,91,0.00,,FEW070,0.00,0.00,VWS V15.00,2014-10-01 04:58:00,
2014-10-01 01:00:00,53.2,50.7,30.04,NE,54,0.0,0.0,91,0.00,,FEW070,0.00,0.00,VWS V15.00,2014-10-01 05:00:00,
2014-10-01 01:03:00,53.3,50.7,30.04,ENE,65,3.0,0.0,91,0.00,,FEW070,0.00,0.00,VWS V15.00,2014-10-01 05:03:00,
2014-10-01 01:08:00,53.2,50.3,30.04,NNE,26,0.0,0.0,90,0.00,,FEW070,0.00,0.00,VWS V15.00,2014-10-01 05:08:00,
2014-10-01 01:30:00,52.2,49.7,30.04,NE,45,0.0,8.0,91,0.00,,FEW070,0.00,0.00,VWS V15.00,2014-10-01 05:30:00,
2014-10-01 02:00:00,51.2,49.2,30.04,NE,45,0.0,0.0,93,0.00,,FEW070,0.00,0.00,VWS V15.00,2014-10-01 06:00:00,
2014-10-01 02:30:00,50.4,49.0,30.05,NE,45,0.0,0.0,95,0.00,,FEW070,0.00,0.00,VWS V15.00,2014-10-01 06:30:00,
2014-10-01 03:00:00,50.3,48.9,30.04,NE,45,0.0,0.0,95,0.00,,FEW070,0.00,0.00,VWS V15.00,2014-10-01 07:00:00,
2014-10-01 03:30:00,49.3,48.2,30.03,NE,45,0.0,0.0,96,0.00,,FEW070,0.00,0.00,VWS V15.00,2014-10-01 07:30:00,
2014-10-01 04:00:00,48.6,47.8,30.03,NE,45,0.0,0.0,97,0.00,,FEW070,0.00,0.00,VWS V15.00,2014-10-01 08:00:00,
2014-10-01 04:30:00,48.4,47.6,30.03,NE,45,0.0,0.0,97,0.00,,FEW070,0.00,0.00,VWS V15.00,2014-10-01 08:30:00,
2014-10-01 05:00:00,47.8,47.0,30.03,NE,45,0.0,0.0,97,0.00,,FEW070,0.00,0.00,VWS V15.00,2014-10-01 09:00:00,
2014-10-01 05:30:00,47.2,46.7,30.03,NE,45,0.0,0.0,98,0.00,,FEW070,0.00,0.00,VWS V15.00,2014-10-01 09:30:00,
2014-10-01 06:00:00,46.6,46.1,30.03,NE,45,0.0,0.0,98,0.00,,FEW070,0.00,0.00,VWS V15.00,2014-10-01 10:00:00,
2014-10-01 06:30:00,46.4,45.9,30.04,NE,45,0.0,0.0,98,0.00,,FEW070,0.00,0.00,VWS V15.00,2014-10-01 10:30:00,
2014-10-01 07:00:00,46.1,45.6,30.05,NE,45,0.0,0.0,98,0.00,,FEW070,0.00,0.00,VWS V15.00,2014-10-01 11:00:00,
2014-10-01 07:30:00,47.7,47.4,30.06,NE,45,0.0,0.0,99,0.00,,FEW070,0.00,0.00,VWS V15.00,2014-10-01 11:30:00,
2014-10-01 08:00:00,48.9,48.6,30.07,NE,45,0.0,6.0,99,0.00,,FEW070,0.00,8.00,VWS V15.00,2014-10-01 12:00:00,
2014-10-01 08:30:00,49.6,49.6,30.07,NE,45,0.0,6.0,100,0.00,,FEW070,0.00,32.00,VWS V15.00,2014-10-01 12:30:00,
2014-10-01 09:00:00,50.1,50.1,30.08,NE,45,0.0,6.0,100,0.00,,FEW070,0.00,77.00,VWS V15.00,2014-10-01 13:00:00,
2014-10-01 09:30:00,50.7,50.7,30.09,ENE,68,1.5,8.0,100,0.00,,FEW070,0.00,98.00,VWS V15.00,2014-10-01 13:30:00,
2014-10-01 10:00:00,51.4,51.4,30.10,ENE,68,1.5,8.0,100,0.00,,FEW070,0.00,121.00,VWS V15.00,2014-10-01 14:00:00,
2014-10-01 10:30:00,52.3,52.3,30.10,East,90,0.0,4.0,100,0.00,,FEW070,0.00,197.00,VWS V15.00,2014-10-01 14:30:00,
2014-10-01 11:11:00,55.7,55.4,30.10,East,88,0.0,4.0,99,0.00,,FEW070,0.00,682.00,VWS V15.00,2014-10-01 15:11:00,
2014-10-01 11:16:00,57.4,56.8,30.09,East,89,0.0,4.0,98,0.00,,FEW070,0.00,538.00,VWS V15.00,2014-10-01 15:16:00,
2014-10-01 11:21:00,57.9,56.5,30.10,East,79,0.0,4.0,95,0.00,,FEW070,0.00,533.00,VWS V15.00,2014-10-01 15:21:00,
2014-10-01 11:26:00,58.2,56.2,30.10,ENE,69,0.0,4.0,93,0.00,,FEW070,0.00,557.00,VWS V15.00,2014-10-01 15:26:00,
2014-10-01 11:31:00,58.4,55.8,30.10,ENE,75,0.0,4.0,91,0.00,,FEW070,0.00,566.00,VWS V15.00,2014-10-01 15:31:00,
2014-10-01 11:36:00,58.9,56.3,30.10,SE,132,1.5,4.0,91,0.00,,FEW070,0.00,573.00,VWS V15.00,2014-10-01 15:36:00,
2014-10-01 11:41:00,61.1,57.5,30.10,East,99,0.0,4.0,88,0.00,,FEW070,0.00,589.00,VWS V15.00,2014-10-01 15:41:00,
2014-10-01 11:46:00,61.8,56.9,30.10,NW,317,0.0,4.0,84,0.00,,FEW070,0.00,591.00,VWS V15.00,2014-10-01 15:46:00,
2014-10-01 11:51:00,61.4,56.5,30.10,WNW,295,0.0,4.0,84,0.00,,FEW070,0.00,605.00,VWS V15.00,2014-10-01 15:51:00,
2014-10-01 11:56:00,61.7,56.2,30.10,East,88,1.5,4.0,82,0.00,,FEW070,0.00,610.00,VWS V15.00,2014-10-01 15:56:00,
2014-10-01 12:01:00,62.4,57.5,30.10,East,100,0.0,4.0,84,0.00,,FEW070,0.00,613.00,VWS V15.00,2014-10-01 16:01:00,
2014-10-01 12:06:00,63.7,57.4,30.10,NNW,335,0.0,4.0,80,0.00,,FEW070,0.00,622.00,VWS V15.00,2014-10-01 16:06:00,
2014-10-01 12:12:00,63.3,56.7,30.09,ESE,117,3.0,4.0,79,0.00,,FEW070,0.00,622.00,VWS V15.00,2014-10-01 16:12:00,
2014-10-01 12:17:00,63.1,56.8,30.10,ESE,117,0.0,4.0,80,0.00,,FEW070,0.00,633.00,VWS V15.00,2014-10-01 16:17:00,
2014-10-01 12:22:00,64.2,57.6,30.09,ESE,108,0.0,4.0,79,0.00,,FEW070,0.00,640.00,VWS V15.00,2014-10-01 16:22:00,
2014-10-01 12:27:00,65.8,57.7,30.09,ESE,117,1.5,4.0,75,0.00,,FEW070,0.00,643.00,VWS V15.00,2014-10-01 16:27:00,
2014-10-01 12:32:00,66.8,59.0,30.09,NW,319,0.0,4.0,76,0.00,,FEW070,0.00,647.00,VWS V15.00,2014-10-01 16:32:00,
2014-10-01 12:37:00,67.0,58.5,30.09,ENE,61,0.0,4.0,74,0.00,,FEW070,0.00,654.00,VWS V15.00,2014-10-01 16:37:00,
2014-10-01 12:42:00,67.4,58.1,30.09,WSW,250,1.5,4.0,72,0.00,,FEW070,0.00,652.00,VWS V15.00,2014-10-01 16:42:00,
2014-10-01 12:47:00,67.1,55.8,30.09,NNW,331,0.0,4.0,67,0.00,,FEW070,0.00,657.00,VWS V15.00,2014-10-01 16:47:00,
2014-10-01 12:52:00,67.3,56.4,30.09,SE,140,0.0,4.0,68,0.00,,FEW070,0.00,664.00,VWS V15.00,2014-10-01 16:52:00,
2014-10-01 12:57:00,68.8,57.4,30.09,NW,315,0.0,4.0,67,0.00,,FEW070,0.00,668.00,VWS V15.00,2014-10-01 16:57:00,
2014-10-01 13:02:00,69.1,57.7,30.09,NNW,342,3.0,4.0,67,0.00,,FEW070,0.00,666.00,VWS V15.00,2014-10-01 17:02:00,
2014-10-01 13:07:00,68.7,57.7,30.08,NW,321,0.0,4.0,68,0.00,,FEW070,0.00,668.00,VWS V15.00,2014-10-01 17:07:00,